This is the latest recevied weather packets stored in our database for station/object G6UIM-13. If no packets are shown the sender has not sent any weather packets the latest 10 day(s).
| Time | Temp. | Humidity | Pressure | Rain* | Wind** | Luminosity | Snow |
|---|---|---|---|---|---|---|---|
| 1788602249 | 20.56° C | 60% | 1026.5 hPa | 0 mm | - | - | - |
| 1788601999 | 20.56° C | 60% | 1026.7 hPa | 0 mm | - | - | - |
| 1788601709 | 21.11° C | 58% | 1026.7 hPa | 0 mm | - | - | - |
| 1788601449 | 20.56° C | 61% | 1026.6 hPa | 0 mm | - | - | - |
| 1788601154 | 20.56° C | 60% | 1026.7 hPa | 0 mm | - | - | - |
| 1788600869 | 20.56° C | 60% | 1026.7 hPa | 0 mm | - | - | - |
| 1788600624 | 20.56° C | 60% | 1026.7 hPa | 0 mm | - | - | - |
| 1788600360 | 20.56° C | 60% | 1026.7 hPa | 0 mm | - | - | - |
| 1788600084 | 20.56° C | 60% | 1026.7 hPa | 0 mm | - | - | - |
| 1788599819 | 20° C | 60% | 1026.6 hPa | 0 mm | - | - | - |
| 1788599549 | 20° C | 62% | 1026.6 hPa | 0 mm | - | - | - |
| 1788599263 | 20° C | 62% | 1026.5 hPa | 0 mm | - | - | - |
| 1788598969 | 20° C | 63% | 1026.4 hPa | 0 mm | - | - | - |
| 1788598680 | 19.44° C | 65% | 1026.4 hPa | 0 mm | - | - | - |
| 1788598404 | 19.44° C | 66% | 1026.5 hPa | 0 mm | - | - | - |
| 1788598154 | 19.44° C | 67% | 1026.6 hPa | 0 mm | - | - | - |
| 1788597854 | 18.89° C | 69% | 1026.5 hPa | 0 mm | - | - | - |
| 1788597594 | 18.89° C | 70% | 1026.4 hPa | 0 mm | - | - | - |
| 1788597309 | 18.33° C | 71% | 1026.4 hPa | 0 mm | - | - | - |
| 1788597064 | 18.33° C | 71% | 1026.4 hPa | 0 mm | - | - | - |
| 1788596790 | 18.33° C | 71% | 1026.4 hPa | 0 mm | - | - | - |
| 1788596525 | 17.78° C | 71% | 1026.3 hPa | 0 mm | - | - | - |
| 1788596234 | 17.78° C | 72% | 1026.2 hPa | 0 mm | - | - | - |
| 1788595959 | 17.22° C | 74% | 1026.2 hPa | 0 mm | - | - | - |
| 1788595689 | 16.67° C | 77% | 1026.1 hPa | 0 mm | - | - | - |
* Rain latest hour (hover to see other rain measurements)
** Current wind speed in m/s (hover to see current wind gust speed)